Weather History for KFDK - May, 2013

Change the Weather History Date:

Tuesday, May 28, 2013

  Actual Average (KHGR) Record (KHGR)
Temperature  
Mean Temperature 66 °F 66 °F  
Max Temperature 78 °F 76 °F 89 °F (2012)
Min Temperature 53 °F 56 °F 46 °F (1997)
Degree Days  
Heating Degree Days 0 3  
Month to date heating degree days 147  
Since 1 July heating degree days 5161  
Cooling Degree Days 0 3  
Month to date cooling degree days 48  
Year to date cooling degree days 63  
Growing Degree Days 16 (Base 50)    
Moisture  
Dew Point 58 °F    
Average Humidity 91    
Maximum Humidity 100    
Minimum Humidity 65    
Precipitation  
Precipitation 0.02 in 0.14 in 0.68 in (2000)
Month to date precipitation 3.60  
Year to date precipitation 15.77  
Sea Level Pressure  
Sea Level Pressure 30.17 in    
Wind  
Wind Speed 1 mph (East)    
Max Wind Speed 6 mph    
Max Gust Speed -    
Visibility 10 miles    
Events Rain    
T = Trace of Precipitation, MM = Missing Value Source: NWS Daily Summary

Daily Weather History Graph

Daily Weather History Graph

Search for Another Location

Airport or City:

Trip Planner

Search our weather history database for the weather conditions in past years. The results will help you decide how hot, cold, wet, or windy it might be!

Date:

Astronomy

May. 28, 2013 Rise Set
Actual Time 5:46 AM EDT 8:27 PM EDT
Civil Twilight 5:14 AM EDT 8:59 PM EDT
Nautical Twilight 4:35 AM EDT 9:38 PM EDT
Astronomical Twilight 3:51 AM EDT 10:23 PM EDT
Moon 11:50 PM EDT (5/28) 9:31 AM EDT (5/28)
Length of Visible Light 15h 44m
Length of Day
14h 41m
Waning Gibbous, 83% of the Moon is Illuminated
May 28
Waning Gibbous
May 31
Last Quarter
Jun 8
New
Jun 16
First Quarter
Jun 23
Full

Hourly Weather History & Observations

Time (EDT) Temp. Dew Point Humidity Pressure Visibility Wind Dir Wind Speed Gust Speed Precip Events Conditions
12:10 AM 55.4 °F 53.6 °F 94% 30.22 in 10.0 mi Calm Calm - N/A   Clear
12:30 AM 55.4 °F 51.8 °F 88% 30.23 in 10.0 mi Calm Calm - N/A   Scattered Clouds
12:50 AM 55.4 °F 53.6 °F 94% 30.23 in 10.0 mi Calm Calm - N/A   Mostly Cloudy
1:10 AM 55.4 °F 53.6 °F 94% 30.23 in 10.0 mi SE 3.5 mph - N/A   Scattered Clouds
1:30 AM 55.4 °F 53.6 °F 94% 30.21 in 10.0 mi SE 3.5 mph - N/A   Scattered Clouds
1:50 AM 55.4 °F 53.6 °F 94% 30.22 in 10.0 mi Calm Calm - N/A   Scattered Clouds
2:10 AM 55.4 °F 53.6 °F 94% 30.22 in 10.0 mi Calm Calm - N/A   Mostly Cloudy
2:30 AM 55.4 °F 53.6 °F 94% 30.21 in 10.0 mi Calm Calm - N/A   Scattered Clouds
2:50 AM 53.6 °F 53.6 °F 100% 30.20 in 10.0 mi Calm Calm - N/A   Mostly Cloudy
3:10 AM 53.6 °F 53.6 °F 100% 30.20 in 10.0 mi Calm Calm - N/A   Overcast
3:30 AM 53.6 °F 53.6 °F 100% 30.19 in 10.0 mi Calm Calm - N/A   Mostly Cloudy
3:50 AM 53.6 °F 53.6 °F 100% 30.19 in 10.0 mi Calm Calm - N/A   Scattered Clouds
4:10 AM 53.6 °F 53.6 °F 100% 30.19 in 10.0 mi Calm Calm - N/A   Overcast
4:30 AM 53.6 °F 53.6 °F 100% 30.20 in 10.0 mi Calm Calm - N/A   Overcast
4:50 AM 53.6 °F 53.6 °F 100% 30.20 in 10.0 mi SE 4.6 mph - N/A Rain Light Rain
5:10 AM 53.6 °F 53.6 °F 100% 30.19 in 7.0 mi Calm Calm - 0.01 in Rain Light Rain
5:30 AM 53.6 °F 53.6 °F 100% 30.20 in 10.0 mi Calm Calm - 0.02 in Rain Light Rain
5:55 AM 53.6 °F 53.6 °F 100% 30.20 in 10.0 mi Calm Calm - 0.02 in   Drizzle
6:15 AM 53.6 °F 53.6 °F 100% 30.20 in 10.0 mi Calm Calm - N/A   Mostly Cloudy
6:35 AM 53.6 °F 53.6 °F 100% 30.20 in 10.0 mi Calm Calm - N/A   Scattered Clouds
6:45 AM 53.6 °F 53.6 °F 100% 30.20 in 7.0 mi North 3.5 mph - N/A   Scattered Clouds
6:46 AM 55.4 °F 55.4 °F 100% 30.20 in 10.0 mi Variable 3.5 mph - N/A   Scattered Clouds
7:48 AM 55.4 °F 55.4 °F 100% 30.20 in 10.0 mi ENE 4.6 mph - N/A   Mostly Cloudy
9:53 AM 60.8 °F 55.4 °F 82% 30.21 in 10.0 mi NNE 3.5 mph - N/A   Mostly Cloudy
9:58 AM 60.8 °F 55.4 °F 82% 30.21 in 10.0 mi NNE 3.5 mph - N/A   Mostly Cloudy
9:59 AM 57.2 °F 57.2 °F 100% 30.19 in 10.0 mi Calm Calm - N/A   Overcast
10:54 AM 62.6 °F 57.2 °F 82% 30.19 in 10.0 mi Calm Calm - N/A   Mostly Cloudy
11:54 AM 64.4 °F 60.8 °F 88% 30.18 in 10.0 mi Calm Calm - N/A   Mostly Cloudy
12:45 PM 68.0 °F 60.8 °F 78% 30.17 in 10.0 mi WNW 3.5 mph - N/A   Clear
1:48 PM 71.6 °F 62.6 °F 73% 30.17 in 10.0 mi Calm Calm - N/A   Clear
2:55 PM 75.2 °F 64.4 °F 69% 30.15 in 10.0 mi SE 5.8 mph - N/A   Clear
3:45 PM 75.2 °F 62.6 °F 65% 30.13 in 10.0 mi SSW 3.5 mph - N/A   Mostly Cloudy
4:45 PM 77.0 °F 64.4 °F 65% 30.12 in 10.0 mi Calm Calm - N/A   Clear
5:45 PM 78.8 °F 66.2 °F 65% 30.11 in 10.0 mi Calm Calm - N/A   Clear
7:50 PM 75.2 °F 68.0 °F 78% 30.09 in 10.0 mi Calm Calm - N/A   Mostly Cloudy
8:55 PM 69.8 °F 64.4 °F 83% 30.09 in 10.0 mi South 3.5 mph - N/A   Scattered Clouds
9:15 PM 69.8 °F 64.4 °F 83% 30.09 in 10.0 mi Calm Calm - N/A   Clear
9:35 PM 68.0 °F 64.4 °F 88% 30.10 in 10.0 mi Calm Calm - N/A   Clear
9:55 PM 68.0 °F 64.4 °F 88% 30.10 in 10.0 mi Calm Calm - N/A   Clear
10:15 PM 64.4 °F 64.4 °F 100% 30.11 in 10.0 mi Calm Calm - N/A   Clear
10:35 PM 64.4 °F 62.6 °F 94% 30.11 in 10.0 mi Calm Calm - N/A   Clear
10:55 PM 64.4 °F 64.4 °F 100% 30.11 in 10.0 mi Calm Calm - N/A   Scattered Clouds
11:15 PM 62.6 °F 62.6 °F 100% 30.11 in 10.0 mi Calm Calm - N/A   Clear
11:35 PM 62.6 °F 62.6 °F 100% 30.11 in 10.0 mi Calm Calm - N/A   Clear
11:55 PM 62.6 °F 62.6 °F 100% 30.11 in 4.0 mi Calm Calm - N/A   Clear